Skip Page Navigation
NASA JPL Caltech
NASA Logo - Jet Propulsion Laboratory + View the NASA Portal
+ Center for Near-Earth Object Studies
JPL Home Earth Solar System Stars & Galaxies Technology
JPL Solar System Dynamics
BODIES ORBITS EPHEMERIDES TOOLS PHYSICAL DATA DISCOVERY FAQ SITE MAP
JPL Small-Body Database Browser
Search: [ help ]  
1869 Philoctetes (4596 P-L)
Classification: Jupiter Trojan          SPK-ID: 2001869
Ephemeris | Orbit Diagram | Orbital Elements | Mission Design | Physical Parameters | Discovery Circumstances ]

[ hide orbit diagram ]

For accurate long-term ephemerides, please instead use our Horizons system.This orbit viewer was implemented using two-body methods, and hence should not be used for determining accurate long-term trajectories (over several years or decades) or planetary encounter circumstances.


[ revert to old Java-based viewer ]

Orbital Elements at Epoch 2459000.5 (2020-May-31.0) TDB
Reference: JPL 27 (heliocentric ecliptic J2000)
 Element Value Uncertainty (1-sigma)   Units 
e .06930812647908151 4.9622e-08  
a 5.196826850620154 9.0939e-08 au
q 4.836644517967486 3.1419e-07 au
i 3.971249284823279 4.6058e-06 deg
node 43.87346299694123 7.0114e-05 deg
peri 325.1017836364913 7.8379e-05 deg
M 327.0037735937808 3.6936e-05 deg
tp 2459397.113572100050
(2021-Jul-01.61357210)
0.00044535 TDB
period 4327.18833354551
11.85
0.00011358
3.11e-07
d
yr
n .08319489984043095 2.1837e-09 deg/d
Q 5.557009183272823 9.7242e-08 au
  Orbit Determination Parameters
   # obs. used (total)      1351  
   data-arc span      21809 days (59.71 yr)  
   first obs. used      1960-09-24  
   last obs. used      2020-06-10  
   planetary ephem.      DE431  
   SB-pert. ephem.      SB431-N16  
   condition code      0  
   norm. resid. RMS      .53638  
   source      ORB  
   producer      Otto Matic  
   solution date      2020-Jun-23 15:37:47  

Additional Information
 Earth MOID = 3.83701 au 
 Jupiter MOID = .0826711 au 
 T_jup = 2.990 
[ show covariance matrix ]

Ephemeris | Orbit Diagram | Orbital Elements | Mission Design | Physical Parameters | Discovery Circumstances ]

Physical Parameter Table
Parameter Symbol Value Units Sigma Reference Notes
absolute magnitude H 11.1   n/a MPO416726  
diameter diameter 22.655 km 3.404 urn:nasa:pds:neowise_diameters_albedos::2.0[jupiter_trojans] (http://adsabs.harvard.edu/abs/2012ApJ...759...49G)  
geometric albedo albedo 0.104   0.031 urn:nasa:pds:neowise_diameters_albedos::2.0[jupiter_trojans] (http://adsabs.harvard.edu/abs/2012ApJ...759...49G)  

1869 Philoctetes (4596 P-L)          Discovered 1960-Sep-24 by PLS at Palomar
These planets have all been discovered as a result of the Palomar survey of faint minor planets and subsequently identified with planets observed at other oppositions. In Sept. and Oct. 1960, T. Gehrels exposed 130 plates with the 122 cm Schmidt camera at Palomar. In the following years C. J. van Houten and I. van Houten-Groeneveld measured these plates astrometrically and photometrically at Leiden. P. Herget, Cincinnati, computed the orbits of the planets found on the NORC computer, Dahlgren, Virginia, USA.
Note: "planet" implies "minor planet"
Reference: DISCOVERY.DBLast Updated: 2003-08-29
Ephemeris | Orbit Diagram | Orbital Elements | Mission Design | Physical Parameters | Discovery Circumstances ]
ABOUT SSD CREDITS/AWARDS PRIVACY/COPYRIGHT GLOSSARY LINKS
FirstGov 2020-Jul-09 23:54 UT
(server date/time)  
NASA Home Page
Site Manager:   Ryan S. Park
Webmaster  Alan B. Chamberlin